STARLINK-1039, 44744

Orbit data source: Space-Track

STARLINK-1039, 44744 is a payload satellite owned by SpaceX/Seattle (US) in LEO that was launched on Mon, 11 Nov 2019 UTC via an FALCON 9 launch vehicle from the Air Force Eastern Test Range (AFETR). Payloads include a variety of satellites, spacecraft, and rockets equipped with specific instruments for various scientific and technological missions. These include communications satellites like Starlink; space stations such as the ISS; scientific satellites like the Hubble; Earth observation satellites from companies like Planet Labs, Umbra, and HawkEye 360; GPS; miniature CubeSats for education and research; and military/defense satellites.

Loading next visibility...
STARLINK-1039 details
Identifier
44744, 2019-074AH
Orbit
LEO
Last TLE update15 hours ago
Origin
Flag of USSpaceX/Seattle (US)
ManufacturerSpaceX/Seattle
MissionOperational Commercial Communications
Bus & MotorSTARLINK, Unknown motor
Mass260 kg wet, ~248 kg dry
Launch date (UTC)
2019-11-11 (5 years ago)
Launch vehicle
FALCON 9
Launch site
Air Force Eastern Test Range (AFETR)
Object type
Payload
Rocket body
Debris
Shape & HBRBox + 1 Pan, 8.86 m
Radar Cross Section13.562 m², Large (>1 m²)

Expand to show TLE details & history

TLE from 15 hours ago
0 STARLINK-1039
1 44744U 19074AH  24360.82386113  .00001563  00000-0  12380-3 0  9993
2 44744  53.0544  36.7614 0001215  79.4785 280.6341 15.06388564282217
Epoch: 2024-12-25T19:46Z
Definitive object data (Epoch: 2024-12-25T19:46:21.601Z)
Latitude-0.00002°
Longitude5.35931°
Altitude547.971 km
Speed7.589 km/s
True Right ascension02h 27m 02s
True Declination0° 00' 00"
Sunlit
Object was in full shadow at TLE epoch
Visualization TLE readout
Latitude18.48977°
Longitude168.06444°
Altitude547.367 km
Speed7.591 km/s
Apparent Right ascension16h 29m 40s
Apparent Declination-21° 17' 52"
Sunlit
Object is in daylight
Visualization observer readout
Local Sidereal Time10:09:00
Azimuth103.615° ESE
Elevation-17.302°
Doppler factor1
Orbital elements
Apogee altitude548.359 km
Perigee altitude546.676 km
Semi-major axis6,925.654 km
Eccentricity0.0001215
Inclination53.0544°
RAAN36.7614°
Arg. of periapsis79.4785°
True anomaly280.62042°
Mean anomaly280.6341°
Eccentric anomaly280.62726°
Mean motion3.76575 °/min
BSTAR0.0001238
Orbital period95.6 mins
Loading maneuver chart data...

STARLINK-1039 Visibility forecast

Observer location: undefined°, undefined

Span
Click to sort rows by Start time (UTC) header in descending order
Start Az.
Max El. time (UTC)
Max El. Az.
Max El.
End time (UTC)
End Az.
7 mins2024-12-26 12:11:45.735Z310.675° NW2024-12-26 12:14:45.735Z319.436° NNW42.935°2024-12-26 12:18:45.735Z129.215° SE
6 mins2024-12-27 05:24:45.735Z241.494° WSW2024-12-27 05:27:45.735Z1.045° NNE42.044°2024-12-27 05:30:45.735Z44.968° NE
4 mins2024-12-27 07:05:45.735Z309.94° NW2024-12-27 07:07:45.735Z346.185° N17.674°2024-12-27 07:09:45.735Z19.403° NNE
5 mins2024-12-27 10:26:45.735Z339.753° N2024-12-27 10:28:45.735Z16.606° NNE21.935°2024-12-27 10:31:45.735Z73.051° E
|